TimeMST,TemperatureF,Dew PointF,Humidity,Sea Level PressureIn,VisibilityMPH,Wind Direction,Wind SpeedMPH,Gust SpeedMPH,PrecipitationIn,Events,Conditions,WindDirDegrees,DateUTC
12:53 AM,37.9,33.1,83,30.06,10.0,WNW,9.2,-,N/A,,Mostly Cloudy,300,2014-02-18 07:53:00
1:53 AM,35.1,30.9,85,30.09,10.0,WNW,6.9,-,N/A,,Partly Cloudy,300,2014-02-18 08:53:00
2:53 AM,34.0,30.9,89,30.10,10.0,ESE,3.5,-,N/A,,Clear,120,2014-02-18 09:53:00
3:53 AM,34.0,30.9,89,30.12,10.0,Calm,Calm,-,N/A,,Partly Cloudy,0,2014-02-18 10:53:00
4:53 AM,33.1,30.9,92,30.14,10.0,ESE,3.5,-,N/A,,Mostly Cloudy,120,2014-02-18 11:53:00
5:53 AM,34.0,30.9,89,30.16,10.0,Calm,Calm,-,N/A,,Mostly Cloudy,0,2014-02-18 12:53:00
6:53 AM,34.0,30.9,89,30.15,10.0,Calm,Calm,-,N/A,,Overcast,0,2014-02-18 13:53:00
7:53 AM,34.0,30.9,89,30.17,10.0,NNE,3.5,-,N/A,,Overcast,30,2014-02-18 14:53:00
8:53 AM,35.1,32.0,89,30.17,10.0,NNW,5.8,-,N/A,,Overcast,340,2014-02-18 15:53:00
9:53 AM,36.0,33.1,89,30.17,10.0,NNW,4.6,-,N/A,,Overcast,340,2014-02-18 16:53:00
10:53 AM,37.9,34.0,86,30.17,10.0,Calm,Calm,-,N/A,,Overcast,0,2014-02-18 17:53:00
11:53 AM,41.0,35.1,79,30.14,10.0,NE,4.6,-,N/A,,Mostly Cloudy,40,2014-02-18 18:53:00
12:53 PM,46.0,36.0,68,30.11,10.0,Calm,Calm,-,N/A,,Partly Cloudy,0,2014-02-18 19:53:00
1:53 PM,46.0,37.0,71,30.08,10.0,North,4.6,-,N/A,,Overcast,350,2014-02-18 20:53:00
2:53 PM,46.9,37.0,68,30.04,10.0,North,3.5,-,N/A,,Overcast,10,2014-02-18 21:53:00
3:53 PM,48.0,37.0,66,29.99,10.0,North,4.6,-,N/A,,Overcast,350,2014-02-18 22:53:00
4:53 PM,50.0,39.0,66,29.95,10.0,Variable,3.5,-,N/A,,Overcast,0,2014-02-18 23:53:00
5:53 PM,48.9,37.0,64,29.90,10.0,ESE,6.9,-,N/A,,Partly Cloudy,120,2014-02-19 00:53:00
6:53 PM,46.0,35.1,66,29.87,10.0,ESE,4.6,-,N/A,,Mostly Cloudy,120,2014-02-19 01:53:00
7:53 PM,48.9,33.1,54,29.83,10.0,SSE,17.3,23.0,N/A,,Overcast,150,2014-02-19 02:53:00
8:53 PM,46.9,34.0,61,29.79,10.0,SSE,20.7,-,N/A,,Partly Cloudy,160,2014-02-19 03:53:00
9:53 PM,45.0,35.1,68,29.79,10.0,South,10.4,-,N/A,,Mostly Cloudy,170,2014-02-19 04:53:00
10:53 PM,45.0,34.0,65,29.77,10.0,South,6.9,-,N/A,,Scattered Clouds,170,2014-02-19 05:53:00
11:53 PM,46.0,34.0,63,29.80,10.0,WNW,31.1,39.1,N/A,,Mostly Cloudy,300,2014-02-19 06:53:00